owner,sensor,date,latitude,longitude,air_temperature,qcFlag 
COMPS,ioos:station:USF.COMPS:BGC:1,2011-03-01T00:00:00Z,26.4040,-81.8810,23.1,1111122 
COMPS,ioos:station:USF.COMPS:BGC:1,2011-03-01T00:06:00Z,26.4040,-81.8810,20.93,1111122 
COMPS,ioos:station:USF.COMPS:BGC:1,2011-03-01T00:12:00Z,26.4040,-81.8810,23.1,1111122 
COMPS,ioos:station:USF.COMPS:BGC:1,2011-03-01T00:18:00Z,26.4040,-81.8810,23.09,1111122 
COMPS,ioos:station:USF.COMPS:BGC:1,2011-03-01T00:24:00Z,26.4040,-81.8810,23.06,1111122 
COMPS,ioos:station:USF.COMPS:BGC:1,2011-03-01T00:30:00Z,26.4040,-81.8810,23.06,1111122 
COMPS,ioos:station:USF.COMPS:BGC:1,2011-03-01T00:36:00Z,26.4040,-81.8810,23.03,1111122 
COMPS,ioos:station:USF.COMPS:BGC:1,2011-03-01T00:42:00Z,26.4040,-81.8810,22.99,1111122 
COMPS,ioos:station:USF.COMPS:BGC:1,2011-03-01T00:48:00Z,26.4040,-81.8810,22.98,1111122 
COMPS,ioos:station:USF.COMPS:BGC:1,2011-03-01T00:54:00Z,26.4040,-81.8810,22.96,1111122 
COMPS,ioos:station:USF.COMPS:BGC:1,2011-03-01T01:00:00Z,26.4040,-81.8810,23.0,1111122 
COMPS,ioos:station:USF.COMPS:BGC:1,2011-03-01T02:00:00Z,26.4040,-81.8810,22.9,1111122 
COMPS,ioos:station:USF.COMPS:BGC:1,2011-03-01T02:06:00Z,26.4040,-81.8810,22.99,1111122 
COMPS,ioos:station:USF.COMPS:BGC:1,2011-03-01T02:12:00Z,26.4040,-81.8810,23.01,1111122 
COMPS,ioos:station:USF.COMPS:BGC:1,2011-03-01T02:18:00Z,26.4040,-81.8810,22.99,1111122 
COMPS,ioos:station:USF.COMPS:BGC:1,2011-03-01T02:24:00Z,26.4040,-81.8810,22.98,1111122 
COMPS,ioos:station:USF.COMPS:BGC:1,2011-03-01T02:30:00Z,26.4040,-81.8810,22.96,1111122 
COMPS,ioos:station:USF.COMPS:BGC:1,2011-03-01T02:36:00Z,26.4040,-81.8810,22.98,1111122 
COMPS,ioos:station:USF.COMPS:BGC:1,2011-03-01T02:42:00Z,26.4040,-81.8810,22.93,1111122 
COMPS,ioos:station:USF.COMPS:BGC:1,2011-03-01T02:48:00Z,26.4040,-81.8810,22.92,1111122 
COMPS,ioos:station:USF.COMPS:BGC:1,2011-03-01T02:54:00Z,26.4040,-81.8810,22.91,1111122 
COMPS,ioos:station:USF.COMPS:BGC:1,2011-03-01T03:00:00Z,26.4040,-81.8810,22.9,1111122 
COMPS,ioos:station:USF.COMPS:BGC:1,2011-03-01T03:06:00Z,26.4040,-81.8810,22.92,1111122 
COMPS,ioos:station:USF.COMPS:BGC:1,2011-03-01T03:12:00Z,26.4040,-81.8810,22.94,1111122 
COMPS,ioos:station:USF.COMPS:BGC:1,2011-03-01T03:18:00Z,26.4040,-81.8810,22.95,1111122 
COMPS,ioos:station:USF.COMPS:BGC:1,2011-03-01T03:24:00Z,26.4040,-81.8810,22.92,1111122 
COMPS,ioos:station:USF.COMPS:BGC:1,2011-03-01T03:30:00Z,26.4040,-81.8810,22.89,1111122 
COMPS,ioos:station:USF.COMPS:BGC:1,2011-03-01T03:36:00Z,26.4040,-81.8810,22.87,1111122 
COMPS,ioos:station:USF.COMPS:BGC:1,2011-03-01T03:42:00Z,26.4040,-81.8810,22.82,1111122 
COMPS,ioos:station:USF.COMPS:BGC:1,2011-03-01T03:48:00Z,26.4040,-81.8810,22.78,1111122 
COMPS,ioos:station:USF.COMPS:BGC:1,2011-03-01T03:54:00Z,26.4040,-81.8810,22.79,1111122 
COMPS,ioos:station:USF.COMPS:BGC:1,2011-03-01T04:00:00Z,26.4040,-81.8810,22.8,1111122 
COMPS,ioos:station:USF.COMPS:BGC:1,2011-03-01T05:00:00Z,26.4040,-81.8810,22.6,1111122 
COMPS,ioos:station:USF.COMPS:BGC:1,2011-03-01T05:06:00Z,26.4040,-81.8810,22.56,1111122 
COMPS,ioos:station:USF.COMPS:BGC:1,2011-03-01T05:12:00Z,26.4040,-81.8810,22.54,1111122 
COMPS,ioos:station:USF.COMPS:BGC:1,2011-03-01T05:18:00Z,26.4040,-81.8810,22.51,1111122 
COMPS,ioos:station:USF.COMPS:BGC:1,2011-03-01T05:24:00Z,26.4040,-81.8810,22.48,1111122 
COMPS,ioos:station:USF.COMPS:BGC:1,2011-03-01T05:30:00Z,26.4040,-81.8810,22.48,1111122 
COMPS,ioos:station:USF.COMPS:BGC:1,2011-03-01T05:36:00Z,26.4040,-81.8810,22.49,1111122 
COMPS,ioos:station:USF.COMPS:BGC:1,2011-03-01T05:42:00Z,26.4040,-81.8810,22.52,1111122 
COMPS,ioos:station:USF.COMPS:BGC:1,2011-03-01T05:48:00Z,26.4040,-81.8810,22.53,1111122 
COMPS,ioos:station:USF.COMPS:BGC:1,2011-03-01T05:54:00Z,26.4040,-81.8810,22.51,1111122 
COMPS,ioos:station:USF.COMPS:BGC:1,2011-03-01T06:00:00Z,26.4040,-81.8810,22.5,1111122 
COMPS,ioos:station:USF.COMPS:BGC:1,2011-03-01T07:00:00Z,26.4040,-81.8810,22.4,1111122 
COMPS,ioos:station:USF.COMPS:BGC:1,2011-03-01T07:06:00Z,26.4040,-81.8810,22.43,1111122 
COMPS,ioos:station:USF.COMPS:BGC:1,2011-03-01T07:12:00Z,26.4040,-81.8810,22.45,1111122 
COMPS,ioos:station:USF.COMPS:BGC:1,2011-03-01T07:18:00Z,26.4040,-81.8810,22.48,1111122 
COMPS,ioos:station:USF.COMPS:BGC:1,2011-03-01T07:24:00Z,26.4040,-81.8810,22.47,1111122 
COMPS,ioos:station:USF.COMPS:BGC:1,2011-03-01T07:30:00Z,26.4040,-81.8810,22.43,1111122 
COMPS,ioos:station:USF.COMPS:BGC:1,2011-03-01T07:36:00Z,26.4040,-81.8810,22.33,1111122 
COMPS,ioos:station:USF.COMPS:BGC:1,2011-03-01T07:42:00Z,26.4040,-81.8810,22.27,1111122 
COMPS,ioos:station:USF.COMPS:BGC:1,2011-03-01T07:48:00Z,26.4040,-81.8810,22.41,1111122 
COMPS,ioos:station:USF.COMPS:BGC:1,2011-03-01T07:54:00Z,26.4040,-81.8810,22.32,1111122 
COMPS,ioos:station:USF.COMPS:BGC:1,2011-03-01T08:00:00Z,26.4040,-81.8810,22.3,1111122 
COMPS,ioos:station:USF.COMPS:BGC:1,2011-03-01T08:06:00Z,26.4040,-81.8810,22.26,1111122 
COMPS,ioos:station:USF.COMPS:BGC:1,2011-03-01T08:12:00Z,26.4040,-81.8810,22.29,1111122 
COMPS,ioos:station:USF.COMPS:BGC:1,2011-03-01T08:18:00Z,26.4040,-81.8810,22.27,1111122 
COMPS,ioos:station:USF.COMPS:BGC:1,2011-03-01T08:24:00Z,26.4040,-81.8810,22.27,1111122 
COMPS,ioos:station:USF.COMPS:BGC:1,2011-03-01T08:30:00Z,26.4040,-81.8810,22.28,1111122 
COMPS,ioos:station:USF.COMPS:BGC:1,2011-03-01T08:36:00Z,26.4040,-81.8810,22.28,1111122 
COMPS,ioos:station:USF.COMPS:BGC:1,2011-03-01T08:42:00Z,26.4040,-81.8810,22.3,1111122 
COMPS,ioos:station:USF.COMPS:BGC:1,2011-03-01T08:48:00Z,26.4040,-81.8810,22.29,1111122 
COMPS,ioos:station:USF.COMPS:BGC:1,2011-03-01T08:54:00Z,26.4040,-81.8810,22.32,1111122 
COMPS,ioos:station:USF.COMPS:BGC:1,2011-03-01T09:00:00Z,26.4040,-81.8810,22.3,1111122 
COMPS,ioos:station:USF.COMPS:BGC:1,2011-03-01T09:06:00Z,26.4040,-81.8810,22.31,1111122 
COMPS,ioos:station:USF.COMPS:BGC:1,2011-03-01T09:12:00Z,26.4040,-81.8810,22.27,1111122 
COMPS,ioos:station:USF.COMPS:BGC:1,2011-03-01T09:18:00Z,26.4040,-81.8810,22.23,1111122 
COMPS,ioos:station:USF.COMPS:BGC:1,2011-03-01T09:24:00Z,26.4040,-81.8810,22.22,1111122 
COMPS,ioos:station:USF.COMPS:BGC:1,2011-03-01T09:30:00Z,26.4040,-81.8810,22.18,1111122 
COMPS,ioos:station:USF.COMPS:BGC:1,2011-03-01T09:36:00Z,26.4040,-81.8810,22.14,1111122 
COMPS,ioos:station:USF.COMPS:BGC:1,2011-03-01T09:42:00Z,26.4040,-81.8810,22.16,1111122 
COMPS,ioos:station:USF.COMPS:BGC:1,2011-03-01T09:48:00Z,26.4040,-81.8810,22.15,1111122 
COMPS,ioos:station:USF.COMPS:BGC:1,2011-03-01T09:54:00Z,26.4040,-81.8810,22.16,1111122 
COMPS,ioos:station:USF.COMPS:BGC:1,2011-03-01T10:00:00Z,26.4040,-81.8810,22.2,1111122 
COMPS,ioos:station:USF.COMPS:BGC:1,2011-03-01T10:06:00Z,26.4040,-81.8810,22.15,1111122 
COMPS,ioos:station:USF.COMPS:BGC:1,2011-03-01T10:12:00Z,26.4040,-81.8810,22.14,1111122 
COMPS,ioos:station:USF.COMPS:BGC:1,2011-03-01T10:18:00Z,26.4040,-81.8810,22.14,1111122 
COMPS,ioos:station:USF.COMPS:BGC:1,2011-03-01T10:24:00Z,26.4040,-81.8810,22.28,1111122 
COMPS,ioos:station:USF.COMPS:BGC:1,2011-03-01T10:30:00Z,26.4040,-81.8810,22.35,1111122 
COMPS,ioos:station:USF.COMPS:BGC:1,2011-03-01T10:36:00Z,26.4040,-81.8810,22.35,1111122 
COMPS,ioos:station:USF.COMPS:BGC:1,2011-03-01T10:42:00Z,26.4040,-81.8810,22.28,1111122 
COMPS,ioos:station:USF.COMPS:BGC:1,2011-03-01T10:48:00Z,26.4040,-81.8810,22.28,1111122 
COMPS,ioos:station:USF.COMPS:BGC:1,2011-03-01T10:54:00Z,26.4040,-81.8810,22.27,1111122 
COMPS,ioos:station:USF.COMPS:BGC:1,2011-03-01T11:00:00Z,26.4040,-81.8810,22.3,1111122 
COMPS,ioos:station:USF.COMPS:BGC:1,2011-03-01T11:06:00Z,26.4040,-81.8810,22.19,1111122 
COMPS,ioos:station:USF.COMPS:BGC:1,2011-03-01T11:12:00Z,26.4040,-81.8810,22.15,1111122 
COMPS,ioos:station:USF.COMPS:BGC:1,2011-03-01T11:18:00Z,26.4040,-81.8810,22.11,1111122 
COMPS,ioos:station:USF.COMPS:BGC:1,2011-03-01T11:24:00Z,26.4040,-81.8810,22.09,1111122 
COMPS,ioos:station:USF.COMPS:BGC:1,2011-03-01T11:30:00Z,26.4040,-81.8810,22.07,1111122 
COMPS,ioos:station:USF.COMPS:BGC:1,2011-03-01T11:36:00Z,26.4040,-81.8810,22.07,1111122 
COMPS,ioos:station:USF.COMPS:BGC:1,2011-03-01T11:42:00Z,26.4040,-81.8810,22.07,1111122 
COMPS,ioos:station:USF.COMPS:BGC:1,2011-03-01T11:48:00Z,26.4040,-81.8810,22.08,1111122 
COMPS,ioos:station:USF.COMPS:BGC:1,2011-03-01T11:54:00Z,26.4040,-81.8810,22.06,1111122 
COMPS,ioos:station:USF.COMPS:BGC:1,2011-03-01T12:00:00Z,26.4040,-81.8810,22.1,1111122 
COMPS,ioos:station:USF.COMPS:BGC:1,2011-03-01T13:00:00Z,26.4040,-81.8810,22.3,1111122 
COMPS,ioos:station:USF.COMPS:BGC:1,2011-03-01T13:06:00Z,26.4040,-81.8810,22.33,1111122 
COMPS,ioos:station:USF.COMPS:BGC:1,2011-03-01T13:12:00Z,26.4040,-81.8810,22.3,1111122 
COMPS,ioos:station:USF.COMPS:BGC:1,2011-03-01T13:18:00Z,26.4040,-81.8810,22.28,1111122 
COMPS,ioos:station:USF.COMPS:BGC:1,2011-03-01T13:24:00Z,26.4040,-81.8810,22.29,1111122 
COMPS,ioos:station:USF.COMPS:BGC:1,2011-03-01T13:30:00Z,26.4040,-81.8810,22.27,1111122 
COMPS,ioos:station:USF.COMPS:BGC:1,2011-03-01T13:36:00Z,26.4040,-81.8810,22.33,1111122 
COMPS,ioos:station:USF.COMPS:BGC:1,2011-03-01T13:42:00Z,26.4040,-81.8810,22.28,1111122 
COMPS,ioos:station:USF.COMPS:BGC:1,2011-03-01T13:48:00Z,26.4040,-81.8810,22.38,1111122 
COMPS,ioos:station:USF.COMPS:BGC:1,2011-03-01T13:54:00Z,26.4040,-81.8810,22.36,1111122 
COMPS,ioos:station:USF.COMPS:BGC:1,2011-03-01T14:00:00Z,26.4040,-81.8810,22.4,1111122 
COMPS,ioos:station:USF.COMPS:BGC:1,2011-03-01T15:00:00Z,26.4040,-81.8810,22.5,1111122 
COMPS,ioos:station:USF.COMPS:BGC:1,2011-03-01T15:06:00Z,26.4040,-81.8810,22.37,1111122 
COMPS,ioos:station:USF.COMPS:BGC:1,2011-03-01T15:12:00Z,26.4040,-81.8810,22.44,1111122 
COMPS,ioos:station:USF.COMPS:BGC:1,2011-03-01T15:18:00Z,26.4040,-81.8810,22.48,1111122 
COMPS,ioos:station:USF.COMPS:BGC:1,2011-03-01T15:24:00Z,26.4040,-81.8810,22.46,1111122 
COMPS,ioos:station:USF.COMPS:BGC:1,2011-03-01T15:30:00Z,26.4040,-81.8810,22.48,1111122 
COMPS,ioos:station:USF.COMPS:BGC:1,2011-03-01T15:36:00Z,26.4040,-81.8810,22.48,1111122 
COMPS,ioos:station:USF.COMPS:BGC:1,2011-03-01T15:42:00Z,26.4040,-81.8810,22.41,1111122 
COMPS,ioos:station:USF.COMPS:BGC:1,2011-03-01T15:48:00Z,26.4040,-81.8810,22.47,1111122 
COMPS,ioos:station:USF.COMPS:BGC:1,2011-03-01T15:54:00Z,26.4040,-81.8810,22.48,1111122 
COMPS,ioos:station:USF.COMPS:BGC:1,2011-03-01T16:00:00Z,26.4040,-81.8810,22.5,1111122 
COMPS,ioos:station:USF.COMPS:BGC:1,2011-03-01T16:06:00Z,26.4040,-81.8810,22.45,1111122 
COMPS,ioos:station:USF.COMPS:BGC:1,2011-03-01T16:12:00Z,26.4040,-81.8810,22.5,1111122 
COMPS,ioos:station:USF.COMPS:BGC:1,2011-03-01T16:18:00Z,26.4040,-81.8810,22.56,1111122 
COMPS,ioos:station:USF.COMPS:BGC:1,2011-03-01T16:24:00Z,26.4040,-81.8810,22.65,1111122 
COMPS,ioos:station:USF.COMPS:BGC:1,2011-03-01T16:30:00Z,26.4040,-81.8810,22.63,1111122 
COMPS,ioos:station:USF.COMPS:BGC:1,2011-03-01T16:36:00Z,26.4040,-81.8810,22.65,1111122 
COMPS,ioos:station:USF.COMPS:BGC:1,2011-03-01T16:42:00Z,26.4040,-81.8810,22.68,1111122 
COMPS,ioos:station:USF.COMPS:BGC:1,2011-03-01T16:48:00Z,26.4040,-81.8810,22.74,1111122 
COMPS,ioos:station:USF.COMPS:BGC:1,2011-03-01T16:54:00Z,26.4040,-81.8810,22.77,1111122 
COMPS,ioos:station:USF.COMPS:BGC:1,2011-03-01T17:00:00Z,26.4040,-81.8810,22.8,1111122 
COMPS,ioos:station:USF.COMPS:BGC:1,2011-03-01T18:00:00Z,26.4040,-81.8810,22.9,1111122 
COMPS,ioos:station:USF.COMPS:BGC:1,2011-03-01T18:06:00Z,26.4040,-81.8810,23.05,1111122 
COMPS,ioos:station:USF.COMPS:BGC:1,2011-03-01T18:12:00Z,26.4040,-81.8810,22.92,1111122 
COMPS,ioos:station:USF.COMPS:BGC:1,2011-03-01T18:18:00Z,26.4040,-81.8810,22.86,1111122 
COMPS,ioos:station:USF.COMPS:BGC:1,2011-03-01T18:24:00Z,26.4040,-81.8810,22.91,1111122 
COMPS,ioos:station:USF.COMPS:BGC:1,2011-03-01T18:30:00Z,26.4040,-81.8810,22.76,1111122 
COMPS,ioos:station:USF.COMPS:BGC:1,2011-03-01T18:36:00Z,26.4040,-81.8810,22.83,1111122 
COMPS,ioos:station:USF.COMPS:BGC:1,2011-03-01T18:42:00Z,26.4040,-81.8810,22.84,1111122 
COMPS,ioos:station:USF.COMPS:BGC:1,2011-03-01T18:48:00Z,26.4040,-81.8810,22.83,1111122 
COMPS,ioos:station:USF.COMPS:BGC:1,2011-03-01T18:54:00Z,26.4040,-81.8810,22.77,1111122 
COMPS,ioos:station:USF.COMPS:BGC:1,2011-03-01T19:00:00Z,26.4040,-81.8810,22.8,1111122 
COMPS,ioos:station:USF.COMPS:BGC:1,2011-03-01T20:00:00Z,26.4040,-81.8810,22.9,1111122 
COMPS,ioos:station:USF.COMPS:BGC:1,2011-03-01T20:06:00Z,26.4040,-81.8810,22.76,1111122 
COMPS,ioos:station:USF.COMPS:BGC:1,2011-03-01T20:12:00Z,26.4040,-81.8810,22.83,1111122 
COMPS,ioos:station:USF.COMPS:BGC:1,2011-03-01T20:18:00Z,26.4040,-81.8810,22.86,1111122 
COMPS,ioos:station:USF.COMPS:BGC:1,2011-03-01T20:24:00Z,26.4040,-81.8810,22.89,1111122 
COMPS,ioos:station:USF.COMPS:BGC:1,2011-03-01T20:30:00Z,26.4040,-81.8810,22.96,1111122 
COMPS,ioos:station:USF.COMPS:BGC:1,2011-03-01T20:36:00Z,26.4040,-81.8810,22.86,1111122 
COMPS,ioos:station:USF.COMPS:BGC:1,2011-03-01T20:42:00Z,26.4040,-81.8810,22.62,1111122 
COMPS,ioos:station:USF.COMPS:BGC:1,2011-03-01T20:48:00Z,26.4040,-81.8810,22.76,1111122 
COMPS,ioos:station:USF.COMPS:BGC:1,2011-03-01T20:54:00Z,26.4040,-81.8810,22.78,1111122 
COMPS,ioos:station:USF.COMPS:BGC:1,2011-03-01T21:00:00Z,26.4040,-81.8810,22.8,1111122 
COMPS,ioos:station:USF.COMPS:BGC:1,2011-03-01T22:00:00Z,26.4040,-81.8810,22.6,1111122 
COMPS,ioos:station:USF.COMPS:BGC:1,2011-03-01T22:06:00Z,26.4040,-81.8810,22.85,1111122 
COMPS,ioos:station:USF.COMPS:BGC:1,2011-03-01T22:12:00Z,26.4040,-81.8810,22.95,1111122 
COMPS,ioos:station:USF.COMPS:BGC:1,2011-03-01T22:18:00Z,26.4040,-81.8810,23.01,1111122 
COMPS,ioos:station:USF.COMPS:BGC:1,2011-03-01T22:24:00Z,26.4040,-81.8810,22.98,1111122 
COMPS,ioos:station:USF.COMPS:BGC:1,2011-03-01T22:30:00Z,26.4040,-81.8810,22.92,1111122 
COMPS,ioos:station:USF.COMPS:BGC:1,2011-03-01T22:36:00Z,26.4040,-81.8810,22.94,1111122 
COMPS,ioos:station:USF.COMPS:BGC:1,2011-03-01T22:42:00Z,26.4040,-81.8810,22.99,1111122 
COMPS,ioos:station:USF.COMPS:BGC:1,2011-03-01T22:48:00Z,26.4040,-81.8810,22.99,1111122 
COMPS,ioos:station:USF.COMPS:BGC:1,2011-03-01T22:54:00Z,26.4040,-81.8810,22.94,1111122 
COMPS,ioos:station:USF.COMPS:BGC:1,2011-03-01T23:00:00Z,26.4040,-81.8810,22.9,1111122 
COMPS,ioos:station:USF.COMPS:BGC:1,2011-03-02T00:00:00Z,26.4040,-81.8810,22.6,1111122 
COMPS,ioos:station:USF.COMPS:BGC:1,2011-03-02T00:06:00Z,26.4040,-81.8810,20.56,1111122 
COMPS,ioos:station:USF.COMPS:BGC:1,2011-03-02T00:12:00Z,26.4040,-81.8810,22.72,1111122 
COMPS,ioos:station:USF.COMPS:BGC:1,2011-03-02T00:18:00Z,26.4040,-81.8810,22.72,1111122 
COMPS,ioos:station:USF.COMPS:BGC:1,2011-03-02T00:24:00Z,26.4040,-81.8810,22.74,1111122 
COMPS,ioos:station:USF.COMPS:BGC:1,2011-03-02T00:30:00Z,26.4040,-81.8810,22.72,1111122 
COMPS,ioos:station:USF.COMPS:BGC:1,2011-03-02T00:36:00Z,26.4040,-81.8810,22.69,1111122 
COMPS,ioos:station:USF.COMPS:BGC:1,2011-03-02T00:42:00Z,26.4040,-81.8810,22.65,1111122 
COMPS,ioos:station:USF.COMPS:BGC:1,2011-03-02T00:48:00Z,26.4040,-81.8810,22.6,1111122 
COMPS,ioos:station:USF.COMPS:BGC:1,2011-03-02T00:54:00Z,26.4040,-81.8810,22.55,1111122 
COMPS,ioos:station:USF.COMPS:BGC:1,2011-03-02T01:00:00Z,26.4040,-81.8810,22.6,1111122 
COMPS,ioos:station:USF.COMPS:BGC:1,2011-03-02T02:00:00Z,26.4040,-81.8810,22.7,1111122 
COMPS,ioos:station:USF.COMPS:BGC:1,2011-03-02T02:06:00Z,26.4040,-81.8810,21.04,1111122 
COMPS,ioos:station:USF.COMPS:BGC:1,2011-03-02T02:12:00Z,26.4040,-81.8810,20.41,1111122 
COMPS,ioos:station:USF.COMPS:BGC:1,2011-03-02T02:18:00Z,26.4040,-81.8810,20.0,1111122 
COMPS,ioos:station:USF.COMPS:BGC:1,2011-03-02T02:24:00Z,26.4040,-81.8810,19.79,1111122 
COMPS,ioos:station:USF.COMPS:BGC:1,2011-03-02T02:30:00Z,26.4040,-81.8810,19.62,1111122 
COMPS,ioos:station:USF.COMPS:BGC:1,2011-03-02T02:36:00Z,26.4040,-81.8810,19.74,1111122 
COMPS,ioos:station:USF.COMPS:BGC:1,2011-03-02T02:42:00Z,26.4040,-81.8810,19.62,1111122 
COMPS,ioos:station:USF.COMPS:BGC:1,2011-03-02T02:48:00Z,26.4040,-81.8810,19.58,1111122 
COMPS,ioos:station:USF.COMPS:BGC:1,2011-03-02T02:54:00Z,26.4040,-81.8810,19.65,1111122 
COMPS,ioos:station:USF.COMPS:BGC:1,2011-03-02T03:00:00Z,26.4040,-81.8810,19.7,1111122 
COMPS,ioos:station:USF.COMPS:BGC:1,2011-03-02T04:00:00Z,26.4040,-81.8810,19.6,1111122 
COMPS,ioos:station:USF.COMPS:BGC:1,2011-03-02T05:00:00Z,26.4040,-81.8810,19.0,1111122 
COMPS,ioos:station:USF.COMPS:BGC:1,2011-03-02T05:06:00Z,26.4040,-81.8810,18.91,1111122 
COMPS,ioos:station:USF.COMPS:BGC:1,2011-03-02T05:12:00Z,26.4040,-81.8810,18.84,1111122 
COMPS,ioos:station:USF.COMPS:BGC:1,2011-03-02T05:18:00Z,26.4040,-81.8810,18.78,1111122 
COMPS,ioos:station:USF.COMPS:BGC:1,2011-03-02T05:24:00Z,26.4040,-81.8810,18.73,1111122 
COMPS,ioos:station:USF.COMPS:BGC:1,2011-03-02T05:30:00Z,26.4040,-81.8810,18.57,1111122 
COMPS,ioos:station:USF.COMPS:BGC:1,2011-03-02T05:36:00Z,26.4040,-81.8810,18.48,1111122 
COMPS,ioos:station:USF.COMPS:BGC:1,2011-03-02T05:42:00Z,26.4040,-81.8810,18.5,1111122 
COMPS,ioos:station:USF.COMPS:BGC:1,2011-03-02T05:48:00Z,26.4040,-81.8810,18.55,1111122 
COMPS,ioos:station:USF.COMPS:BGC:1,2011-03-02T05:54:00Z,26.4040,-81.8810,18.43,1111122 
COMPS,ioos:station:USF.COMPS:BGC:1,2011-03-02T06:00:00Z,26.4040,-81.8810,18.4,1111122 
COMPS,ioos:station:USF.COMPS:BGC:1,2011-03-02T06:06:00Z,26.4040,-81.8810,18.25,1111122 
COMPS,ioos:station:USF.COMPS:BGC:1,2011-03-02T06:12:00Z,26.4040,-81.8810,18.24,1111122 
COMPS,ioos:station:USF.COMPS:BGC:1,2011-03-02T06:18:00Z,26.4040,-81.8810,18.2,1111122 
COMPS,ioos:station:USF.COMPS:BGC:1,2011-03-02T06:24:00Z,26.4040,-81.8810,18.09,1111122 
COMPS,ioos:station:USF.COMPS:BGC:1,2011-03-02T06:30:00Z,26.4040,-81.8810,18.06,1111122 
COMPS,ioos:station:USF.COMPS:BGC:1,2011-03-02T06:36:00Z,26.4040,-81.8810,18.04,1111122 
COMPS,ioos:station:USF.COMPS:BGC:1,2011-03-02T06:42:00Z,26.4040,-81.8810,17.98,1111122 
COMPS,ioos:station:USF.COMPS:BGC:1,2011-03-02T06:48:00Z,26.4040,-81.8810,17.97,1111122 
COMPS,ioos:station:USF.COMPS:BGC:1,2011-03-02T06:54:00Z,26.4040,-81.8810,18.05,1111122 
COMPS,ioos:station:USF.COMPS:BGC:1,2011-03-02T07:00:00Z,26.4040,-81.8810,18.1,1111122 
COMPS,ioos:station:USF.COMPS:BGC:1,2011-03-02T07:06:00Z,26.4040,-81.8810,18.01,1111122 
COMPS,ioos:station:USF.COMPS:BGC:1,2011-03-02T07:12:00Z,26.4040,-81.8810,17.96,1111122 
COMPS,ioos:station:USF.COMPS:BGC:1,2011-03-02T07:18:00Z,26.4040,-81.8810,17.95,1111122 
COMPS,ioos:station:USF.COMPS:BGC:1,2011-03-02T07:24:00Z,26.4040,-81.8810,17.96,1111122 
COMPS,ioos:station:USF.COMPS:BGC:1,2011-03-02T07:30:00Z,26.4040,-81.8810,18.06,1111122 
COMPS,ioos:station:USF.COMPS:BGC:1,2011-03-02T07:36:00Z,26.4040,-81.8810,18.09,1111122 
COMPS,ioos:station:USF.COMPS:BGC:1,2011-03-02T07:42:00Z,26.4040,-81.8810,18.23,1111122 
COMPS,ioos:station:USF.COMPS:BGC:1,2011-03-02T07:48:00Z,26.4040,-81.8810,18.24,1111122 
COMPS,ioos:station:USF.COMPS:BGC:1,2011-03-02T07:54:00Z,26.4040,-81.8810,18.21,1111122 
COMPS,ioos:station:USF.COMPS:BGC:1,2011-03-02T08:00:00Z,26.4040,-81.8810,18.2,1111122 
COMPS,ioos:station:USF.COMPS:BGC:1,2011-03-02T09:00:00Z,26.4040,-81.8810,17.8,1111122 
COMPS,ioos:station:USF.COMPS:BGC:1,2011-03-02T09:06:00Z,26.4040,-81.8810,17.94,1111122 
COMPS,ioos:station:USF.COMPS:BGC:1,2011-03-02T09:12:00Z,26.4040,-81.8810,17.97,1111122 
COMPS,ioos:station:USF.COMPS:BGC:1,2011-03-02T09:18:00Z,26.4040,-81.8810,17.98,1111122 
COMPS,ioos:station:USF.COMPS:BGC:1,2011-03-02T09:24:00Z,26.4040,-81.8810,17.93,1111122 
COMPS,ioos:station:USF.COMPS:BGC:1,2011-03-02T09:30:00Z,26.4040,-81.8810,18.02,1111122 
COMPS,ioos:station:USF.COMPS:BGC:1,2011-03-02T09:36:00Z,26.4040,-81.8810,17.93,1111122 
COMPS,ioos:station:USF.COMPS:BGC:1,2011-03-02T09:42:00Z,26.4040,-81.8810,17.88,1111122 
COMPS,ioos:station:USF.COMPS:BGC:1,2011-03-02T09:48:00Z,26.4040,-81.8810,17.85,1111122 
COMPS,ioos:station:USF.COMPS:BGC:1,2011-03-02T09:54:00Z,26.4040,-81.8810,17.76,1111122 
COMPS,ioos:station:USF.COMPS:BGC:1,2011-03-02T10:00:00Z,26.4040,-81.8810,17.8,1111122 
COMPS,ioos:station:USF.COMPS:BGC:1,2011-03-02T10:06:00Z,26.4040,-81.8810,17.73,1111122 
COMPS,ioos:station:USF.COMPS:BGC:1,2011-03-02T10:12:00Z,26.4040,-81.8810,17.75,1111122 
COMPS,ioos:station:USF.COMPS:BGC:1,2011-03-02T10:18:00Z,26.4040,-81.8810,17.71,1111122 
COMPS,ioos:station:USF.COMPS:BGC:1,2011-03-02T10:24:00Z,26.4040,-81.8810,17.68,1111122 
COMPS,ioos:station:USF.COMPS:BGC:1,2011-03-02T10:30:00Z,26.4040,-81.8810,17.65,1111122 
COMPS,ioos:station:USF.COMPS:BGC:1,2011-03-02T10:36:00Z,26.4040,-81.8810,17.65,1111122 
COMPS,ioos:station:USF.COMPS:BGC:1,2011-03-02T10:42:00Z,26.4040,-81.8810,17.7,1111122 
COMPS,ioos:station:USF.COMPS:BGC:1,2011-03-02T10:48:00Z,26.4040,-81.8810,17.79,1111122 
COMPS,ioos:station:USF.COMPS:BGC:1,2011-03-02T10:54:00Z,26.4040,-81.8810,17.8,1111122 
COMPS,ioos:station:USF.COMPS:BGC:1,2011-03-02T11:00:00Z,26.4040,-81.8810,17.8,1111122 
COMPS,ioos:station:USF.COMPS:BGC:1,2011-03-02T11:06:00Z,26.4040,-81.8810,17.85,1111122 
COMPS,ioos:station:USF.COMPS:BGC:1,2011-03-02T11:12:00Z,26.4040,-81.8810,17.86,1111122 
COMPS,ioos:station:USF.COMPS:BGC:1,2011-03-02T11:18:00Z,26.4040,-81.8810,17.79,1111122 
COMPS,ioos:station:USF.COMPS:BGC:1,2011-03-02T11:24:00Z,26.4040,-81.8810,17.73,1111122 
COMPS,ioos:station:USF.COMPS:BGC:1,2011-03-02T11:30:00Z,26.4040,-81.8810,17.71,1111122 
COMPS,ioos:station:USF.COMPS:BGC:1,2011-03-02T11:36:00Z,26.4040,-81.8810,17.68,1111122 
COMPS,ioos:station:USF.COMPS:BGC:1,2011-03-02T11:42:00Z,26.4040,-81.8810,17.75,1111122 
COMPS,ioos:station:USF.COMPS:BGC:1,2011-03-02T11:48:00Z,26.4040,-81.8810,17.71,1111122 
COMPS,ioos:station:USF.COMPS:BGC:1,2011-03-02T11:54:00Z,26.4040,-81.8810,17.64,1111122 
COMPS,ioos:station:USF.COMPS:BGC:1,2011-03-02T12:00:00Z,26.4040,-81.8810,17.6,1111122 
COMPS,ioos:station:USF.COMPS:BGC:1,2011-03-02T13:00:00Z,26.4040,-81.8810,18.4,1111122 
COMPS,ioos:station:USF.COMPS:BGC:1,2011-03-02T13:06:00Z,26.4040,-81.8810,18.81,1111122 
COMPS,ioos:station:USF.COMPS:BGC:1,2011-03-02T13:12:00Z,26.4040,-81.8810,18.95,1111122 
COMPS,ioos:station:USF.COMPS:BGC:1,2011-03-02T13:18:00Z,26.4040,-81.8810,19.17,1111122 
COMPS,ioos:station:USF.COMPS:BGC:1,2011-03-02T13:24:00Z,26.4040,-81.8810,19.44,1111122 
COMPS,ioos:station:USF.COMPS:BGC:1,2011-03-02T13:30:00Z,26.4040,-81.8810,19.45,1111122 
COMPS,ioos:station:USF.COMPS:BGC:1,2011-03-02T13:36:00Z,26.4040,-81.8810,19.6,1111122 
COMPS,ioos:station:USF.COMPS:BGC:1,2011-03-02T13:42:00Z,26.4040,-81.8810,19.76,1111122 
COMPS,ioos:station:USF.COMPS:BGC:1,2011-03-02T13:48:00Z,26.4040,-81.8810,19.84,1111122 
COMPS,ioos:station:USF.COMPS:BGC:1,2011-03-02T13:54:00Z,26.4040,-81.8810,20.01,1111122 
COMPS,ioos:station:USF.COMPS:BGC:1,2011-03-02T14:00:00Z,26.4040,-81.8810,20.0,1111122 
COMPS,ioos:station:USF.COMPS:BGC:1,2011-03-02T15:00:00Z,26.4040,-81.8810,21.8,1111122 
COMPS,ioos:station:USF.COMPS:BGC:1,2011-03-02T16:00:00Z,26.4040,-81.8810,23.4,1111122 
COMPS,ioos:station:USF.COMPS:BGC:1,2011-03-02T18:00:00Z,26.4040,-81.8810,25.5,1111122 
COMPS,ioos:station:USF.COMPS:BGC:1,2011-03-02T18:06:00Z,26.4040,-81.8810,25.45,1111122 
COMPS,ioos:station:USF.COMPS:BGC:1,2011-03-02T18:12:00Z,26.4040,-81.8810,25.74,1111122 
COMPS,ioos:station:USF.COMPS:BGC:1,2011-03-02T18:18:00Z,26.4040,-81.8810,25.61,1111122 
COMPS,ioos:station:USF.COMPS:BGC:1,2011-03-02T18:24:00Z,26.4040,-81.8810,25.74,1111122 
COMPS,ioos:station:USF.COMPS:BGC:1,2011-03-02T18:30:00Z,26.4040,-81.8810,25.61,1111122 
COMPS,ioos:station:USF.COMPS:BGC:1,2011-03-02T18:36:00Z,26.4040,-81.8810,25.96,1111122 
COMPS,ioos:station:USF.COMPS:BGC:1,2011-03-02T18:42:00Z,26.4040,-81.8810,26.03,1111122 
COMPS,ioos:station:USF.COMPS:BGC:1,2011-03-02T18:48:00Z,26.4040,-81.8810,25.86,1111122 
COMPS,ioos:station:USF.COMPS:BGC:1,2011-03-02T18:54:00Z,26.4040,-81.8810,26.05,1111122 
COMPS,ioos:station:USF.COMPS:BGC:1,2011-03-02T19:00:00Z,26.4040,-81.8810,26.1,1111122 
COMPS,ioos:station:USF.COMPS:BGC:1,2011-03-02T20:00:00Z,26.4040,-81.8810,26.5,1111122 
COMPS,ioos:station:USF.COMPS:BGC:1,2011-03-02T20:06:00Z,26.4040,-81.8810,26.58,1111122 
COMPS,ioos:station:USF.COMPS:BGC:1,2011-03-02T20:12:00Z,26.4040,-81.8810,26.87,1111122 
COMPS,ioos:station:USF.COMPS:BGC:1,2011-03-02T20:18:00Z,26.4040,-81.8810,26.75,1111122 